Home > Weather > St. Wendel > Past weeks

Flag for Germany Past Weather in St. Wendel, Saarland, Germany — Yesterday and Last 2 Weeks

Now
68 °F

Broken clouds.


Feels Like: 68 °F
Forecast: 55 / 60 °F
Wind: 9 mph from South

Location: Saarbruecken / Ensheim

Current Time: May 29, 2016 at 1:49:26 PM

Latest Report: May 29, 2016 at 1:20 PM


Visibility: N/A

Pressure: 29.71 "Hg

Humidity: 64%

Dew Point: 55 °F

Location of St. WendelLocation

Past Weather in St. Wendel — Graph

°F

St. Wendel Temperature Yesterday

Maximum temperature yesterday: 75 °F (at 2:20 PM)
Minimum temperature yesterday: 55 °F (at 2:50 AM)
Average temperature yesterday: 63 °F

High & Low Weather Summary for the Past Weeks

 TemperatureHumidityPressure
High75 °F (May 28, 2:20 PM)100% (May 17, 6:50 AM)30.15 "Hg (May 17, 6:50 AM)
Low34 °F (May 15, 5:50 AM)36% (May 22, 1:20 PM)29.68 "Hg (May 29, 4:50 AM)
Average55 °F74%29.97 "Hg
* Reported May 14 12:20 PM — May 29 12:20 PM, St. Wendel, Weather by CustomWeather, © 2016

Note: Actual official high and low records may vary slightly from our data, if they occured in-between our weather recording intervals... More about our weather records

Advertising

St. Wendel Weather History for the Previous 24 Hours

Scroll right to see more
 ConditionsComfort  
Time TempWeatherWind HumidityBarometerVisibility
12:20 PM
Sun, May 29
64 °FPartly sunny.9 mph73%29.71 "HgN/A
11:50 AM64 °FBroken clouds.10 mph73%29.71 "HgN/A
11:20 AM64 °FPartly sunny.8 mph78%29.71 "HgN/A
10:50 AM63 °FPartly sunny.9 mph77%29.71 "HgN/A
10:20 AM63 °FPartly sunny.9 mph77%29.71 "HgN/A
9:50 AM61 °FBroken clouds.8 mph83%29.71 "HgN/A
9:20 AM61 °FBroken clouds.8 mph88%29.71 "HgN/A
8:50 AM61 °FPartly sunny.6 mph88%29.71 "HgN/A
8:20 AM59 °FBroken clouds.3 mph94%29.71 "HgN/A
7:50 AM59 °FPartly sunny.5 mph94%29.71 "HgN/A
7:20 AM57 °FFog.5 mph100%29.71 "Hg3 mi
6:50 AM57 °FFog.1 mph94%29.71 "Hg1 mi
6:20 AM55 °FFog.3 mph94%29.71 "Hg2 mi
5:50 AM55 °FFog.2 mph94%29.71 "Hg1 mi
5:20 AM57 °FPartly cloudy.6 mph94%29.71 "Hg4 mi
4:50 AM57 °FRain. Partly cloudy.12 mph94%29.68 "Hg5 mi
4:20 AM57 °FSprinkles. Passing clouds.13 mph94%29.71 "Hg6 mi
3:50 AM57 °FSprinkles. Passing clouds.5 mph94%29.77 "HgN/A
3:20 AM57 °FPassing clouds.6 mph94%29.77 "Hg4 mi
2:50 AM57 °FPassing clouds.7 mph94%29.77 "Hg5 mi
2:20 AM57 °FPassing clouds.8 mph94%29.80 "HgN/A
1:50 AM57 °FPassing clouds.12 mph88%29.77 "HgN/A
1:20 AM59 °FClear.10 mph82%29.77 "Hg10 mi
12:50 AM59 °FClear.10 mph88%29.80 "Hg10 mi
12:20 AM57 °FPassing clouds.7 mph94%29.80 "HgN/A
11:50 PM
Sat, May 28
57 °FClear.6 mph94%29.80 "Hg10 mi
11:20 PM59 °FClear.8 mph88%29.80 "Hg10 mi
10:50 PM59 °FClear.8 mph88%29.80 "Hg10 mi
10:20 PM59 °FPassing clouds.5 mph88%29.83 "HgN/A
9:50 PM59 °FPassing clouds.6 mph88%29.80 "HgN/A
9:20 PM61 °FBroken clouds.9 mph77%29.80 "HgN/A
8:50 PM61 °FBroken clouds.8 mph83%29.83 "HgN/A
8:20 PM63 °FPartly sunny.10 mph73%29.83 "HgN/A
7:50 PM63 °FBroken clouds.10 mph77%29.83 "HgN/A
7:20 PM63 °FBroken clouds.13 mph77%29.83 "HgN/A
6:50 PM63 °FBroken clouds.14 mph83%29.83 "HgN/A
6:20 PM63 °FPartly sunny.13 mph83%29.86 "HgN/A
5:50 PM61 °FBroken clouds.15 mph88%29.86 "HgN/A
5:20 PM64 °FThunderstorms. Partly sunny.10 mph78%29.86 "HgN/A
4:50 PM66 °FThunderstorms. Partly sunny.18 mph52%29.86 "Hg4 mi
4:20 PM73 °FThunderstorms. Broken clouds.3 mph57%29.86 "HgN/A
3:50 PM73 °FPartly sunny.2 mph57%29.86 "HgN/A
3:20 PM73 °FPartly sunny.3 mph53%29.86 "HgN/A
2:50 PM73 °FPartly sunny.5 mph53%29.86 "HgN/A
2:20 PM75 °FBroken clouds.6 mph54%29.86 "HgN/A
1:50 PM73 °FBroken clouds.5 mph57%29.89 "HgN/A
1:20 PM73 °FBroken clouds.5 mph57%29.89 "HgN/A
Weather by CustomWeather, © 2016

See weather overviewHow to use our weather pages